Torna al catalogo

DELTA 1 DEB

AttivoLEO
NORAD 10250·DEBRIS·🇺🇸 United States

Lanciato Jul 14, 1977 da Cape Canaveral Space Force Station

Loading…

Prossimi Passaggi (prossime 24 ore)

TLE

AggiornatoSource: Space-Track

Epoca: Sep 14, 2026, 14:35 UTC

1 10250U 77065CB  26257.60814746  .00001942  00000-0  35710-3 0  9996
2 10250  29.0817  25.8063 0529601 267.3329  86.6541 13.98979958320672

Traccia DELTA 1 DEB in tempo reale con AllMySat

Download on the App Store